Mason, MI

11:25 PM EDT on August 23, 2017 (GMT -0400)
Mason Jewett

Weather History for KTEW - February, 2014

Change the Weather History Date:

Thursday, February 13, 2014

  Actual Average (KLAN) Record (KLAN)
Temperature  
Mean Temperature 20 °F -  
Max Temperature 30 °F 31 °F 59 °F (1876)
Min Temperature 11 °F 15 °F -25 °F (1875)
Degree Days  
Heating Degree Days 44    
Moisture  
Dew Point 10 °F    
Average Humidity 62    
Maximum Humidity 79    
Minimum Humidity 37    
Precipitation  
Precipitation 0.00 in - - ()
Sea Level Pressure  
Sea Level Pressure 29.79 in    
Wind  
Wind Speed 4 mph (SSE)    
Max Wind Speed 14 mph    
Max Gust Speed 18 mph    
Visibility 10 miles    
Events      
Averages and records for this station are not official NWS values.
T = Trace of Precipitation, MM = Missing Value Source: NWS Daily Summary

Daily Weather History Graph

Daily Weather History Graph

Search for Another Location

Airport or City:

Trip Planner

Search our weather history database for the weather conditions in past years. The results will help you decide how hot, cold, wet, or windy it might be!

Date:

Astronomy

Feb. 13, 2014 Rise Set
Actual Time 7:37 AM EST 6:07 PM EST
Civil Twilight 7:08 AM EST 6:36 PM EST
Nautical Twilight 6:35 AM EST 7:09 PM EST
Astronomical Twilight 6:02 AM EST 7:42 PM EST
Moon 5:14 PM EST (2/13) 6:30 AM EST (2/13)
Length of Visible Light 11h 28m
Length of Day
10h 29m
Waxing Gibbous, 98% of the Moon is Illuminated
Feb 13
Waxing Gibbous
Feb 14
Full
Feb 22
Last Quarter
Mar 1
New
Mar 8
First Quarter

Hourly Weather History & Observations

Time (EST) Temp. Windchill Dew Point Humidity Pressure Visibility Wind Dir Wind Speed Gust Speed Precip Events Conditions
12:14 AM 17.6 °F - 7.7 °F 65% 30.03 in 10.0 mi Calm Calm - N/A   Overcast
12:34 AM 18.0 °F 11.1 °F 7.7 °F 64% 30.03 in 10.0 mi SSE 4.6 mph - N/A   Overcast
12:53 AM 18.1 °F - 8.4 °F 66% 30.03 in 10.0 mi Calm Calm - N/A   Overcast
1:14 AM 18.1 °F - 8.1 °F 65% 30.02 in 10.0 mi Calm Calm - N/A   Overcast
1:34 AM 18.0 °F - 8.6 °F 67% 30.03 in 10.0 mi Calm Calm - N/A   Overcast
1:53 AM 17.6 °F 10.7 °F 7.9 °F 66% 30.03 in 10.0 mi SSE 4.6 mph - N/A   Overcast
2:14 AM 17.6 °F 8.2 °F 8.1 °F 66% 30.01 in 10.0 mi SSE 6.9 mph - N/A   Overcast
2:34 AM 17.6 °F 9.3 °F 8.2 °F 67% 30.03 in 10.0 mi SSE 5.8 mph - N/A   Overcast
2:54 AM 17.6 °F 10.7 °F 8.6 °F 68% 30.02 in 10.0 mi SSE 4.6 mph - N/A   Overcast
3:14 AM 17.4 °F 10.4 °F 8.6 °F 68% 30.02 in 10.0 mi SE 4.6 mph - N/A   Overcast
3:34 AM 17.2 °F 11.9 °F 8.8 °F 69% 30.01 in 10.0 mi SSE 3.5 mph - N/A   Overcast
3:54 AM 17.2 °F - 8.2 °F 68% 30.00 in 10.0 mi Calm Calm - N/A   Overcast
4:14 AM 16.9 °F - 8.2 °F 69% 29.99 in 10.0 mi Calm Calm - N/A   Overcast
4:34 AM 17.1 °F - 8.2 °F 68% 29.99 in 10.0 mi Calm Calm - N/A   Overcast
4:54 AM 17.4 °F - 8.6 °F 68% 29.98 in 10.0 mi Calm Calm - N/A   Overcast
5:14 AM 17.4 °F - 9.1 °F 70% 29.98 in 10.0 mi Calm Calm - N/A   Overcast
5:33 AM 17.6 °F - 9.0 °F 69% 29.96 in 10.0 mi Calm Calm - N/A   Overcast
5:54 AM 17.2 °F 11.9 °F 9.1 °F 71% 29.96 in 10.0 mi SE 3.5 mph - N/A   Overcast
6:14 AM 17.2 °F - 9.3 °F 71% 29.94 in 10.0 mi Calm Calm - N/A   Overcast
6:33 AM 16.7 °F - 9.3 °F 73% 29.94 in 10.0 mi Calm Calm - N/A   Overcast
6:54 AM 14.2 °F 8.4 °F 7.3 °F 74% 29.94 in 10.0 mi ESE 3.5 mph - N/A   Scattered Clouds
7:14 AM 12.9 °F 6.9 °F 6.8 °F 77% 29.94 in 10.0 mi SSE 3.5 mph - N/A   Clear
7:34 AM 12.7 °F - 7.3 °F 79% 29.93 in 10.0 mi Calm Calm - N/A   Clear
7:54 AM 13.6 °F - 7.5 °F 77% 29.93 in 10.0 mi Calm Calm - N/A   Clear
8:14 AM 12.6 °F - 6.8 °F 78% 29.93 in 10.0 mi Calm Calm - N/A   Clear
8:34 AM 11.8 °F - 6.1 °F 78% 29.93 in 10.0 mi Calm Calm - N/A   Clear
8:54 AM 12.2 °F - 6.4 °F 78% 29.92 in 10.0 mi Calm Calm - N/A   Clear
9:14 AM 14.4 °F - 7.0 °F 73% 29.92 in 10.0 mi Calm Calm - N/A   Clear
9:34 AM 15.6 °F 10.0 °F 7.2 °F 69% 29.90 in 10.0 mi SSE 3.5 mph - N/A   Clear
9:54 AM 16.2 °F 10.6 °F 7.2 °F 68% 29.90 in 10.0 mi SSE 3.5 mph - N/A   Clear
10:14 AM 18.3 °F 10.2 °F 7.9 °F 64% 29.89 in 10.0 mi SSE 5.8 mph - N/A   Clear
10:34 AM 20.1 °F 10.3 °F 8.6 °F 61% 29.88 in 10.0 mi SSE 8.1 mph - N/A   Clear
10:54 AM 21.2 °F 10.9 °F 8.6 °F 58% 29.87 in 10.0 mi SSE 9.2 mph - N/A   Clear
11:14 AM 21.9 °F 11.7 °F 8.8 °F 57% 29.86 in 10.0 mi SSE 9.2 mph - N/A   Clear
11:34 AM 22.8 °F 13.6 °F 9.0 °F 55% 29.86 in 10.0 mi SSE 8.1 mph - N/A   Clear
11:54 AM 23.9 °F 14.2 °F 9.1 °F 53% 29.84 in 10.0 mi SSE 9.2 mph - N/A   Clear
12:14 PM 25.3 °F 18.5 °F 9.0 °F 50% 29.83 in 10.0 mi SSE 5.8 mph - N/A   Clear
12:34 PM 26.6 °F 17.5 °F 9.5 °F 49% 29.80 in 10.0 mi SSE 9.2 mph - N/A   Clear
12:54 PM 27.1 °F 19.7 °F 8.2 °F 45% 29.78 in 10.0 mi SSE 6.9 mph - N/A   Clear
1:14 PM 28.8 °F 19.0 °F 8.2 °F 42% 29.77 in 10.0 mi South 11.5 mph - N/A   Clear
1:34 PM 28.4 °F 19.7 °F 6.6 °F 40% 29.75 in 10.0 mi South 9.2 mph - N/A   Clear
1:54 PM 29.5 °F 19.3 °F 7.5 °F 40% 29.74 in 10.0 mi SSE 12.7 mph - N/A   Clear
2:34 PM 29.8 °F 23.0 °F 8.8 °F 41% 29.72 in 10.0 mi SSE 6.9 mph - N/A   Clear
2:54 PM 30.0 °F 23.2 °F 7.7 °F 39% 29.71 in 10.0 mi South 6.9 mph - N/A   Clear
3:14 PM 30.2 °F 22.6 °F 9.0 °F 41% 29.70 in 10.0 mi SSE 8.1 mph - N/A   Clear
3:34 PM 30.6 °F 23.1 °F 6.8 °F 37% 29.70 in 10.0 mi South 8.1 mph - N/A   Clear
3:54 PM 30.6 °F 22.4 °F 9.0 °F 40% 29.69 in 10.0 mi SSE 9.2 mph - N/A   Clear
4:14 PM 29.5 °F 21.8 °F 8.2 °F 41% 29.67 in 10.0 mi SSE 8.1 mph - N/A   Mostly Cloudy
4:34 PM 29.5 °F 21.8 °F 8.4 °F 41% 29.66 in 10.0 mi SSE 8.1 mph - N/A   Mostly Cloudy
4:54 PM 29.8 °F 21.5 °F 9.5 °F 43% 29.65 in 10.0 mi SSE 9.2 mph - N/A   Overcast
5:14 PM 29.3 °F 20.8 °F 8.2 °F 41% 29.63 in 10.0 mi SE 9.2 mph - N/A   Overcast
5:34 PM 28.8 °F 19.0 °F 10.2 °F 46% 29.63 in 10.0 mi SSE 11.5 mph - N/A   Overcast
5:54 PM 28.2 °F 18.3 °F 11.1 °F 49% 29.62 in 10.0 mi SSE 11.5 mph - N/A   Overcast
6:14 PM 27.7 °F 17.1 °F 10.9 °F 50% 29.62 in 10.0 mi SSE 12.7 mph 17.3 mph N/A   Overcast
6:34 PM 27.1 °F 18.2 °F 11.5 °F 52% 29.62 in 10.0 mi SSE 9.2 mph - N/A   Overcast
6:54 PM 26.2 °F 15.2 °F 12.9 °F 57% 29.61 in 7.0 mi SSE 12.7 mph 16.1 mph N/A   Overcast
7:14 PM 25.5 °F 16.9 °F 13.8 °F 61% 29.61 in 10.0 mi SSE 8.1 mph - N/A   Overcast
7:35 PM 24.8 °F 14.6 °F 15.8 °F 69% 29.60 in 10.0 mi SSE 10.4 mph - N/A   Overcast
7:54 PM 24.8 °F 14.0 °F 15.8 °F 69% 29.58 in 10.0 mi SE 11.5 mph - N/A   Overcast
8:14 PM 24.6 °F 15.1 °F 14.9 °F 67% 29.57 in 10.0 mi SE 9.2 mph - N/A   Overcast
8:35 PM 24.4 °F 14.2 °F 15.6 °F 69% 29.56 in 10.0 mi SSE 10.4 mph - N/A   Overcast
8:54 PM 23.9 °F 13.5 °F 15.8 °F 71% 29.56 in 10.0 mi SSE 10.4 mph - N/A   Overcast
9:14 PM 23.7 °F 11.5 °F 15.8 °F 72% 29.55 in 10.0 mi SSE 13.8 mph 18.4 mph N/A   Overcast
9:34 PM 23.5 °F 14.5 °F 15.6 °F 72% 29.54 in 10.0 mi SSE 8.1 mph - N/A   Overcast
9:54 PM 23.2 °F 14.1 °F 15.6 °F 73% 29.53 in 10.0 mi SSE 8.1 mph - N/A   Overcast
10:14 PM 22.8 °F 12.9 °F 15.8 °F 74% 29.52 in 10.0 mi SSE 9.2 mph - N/A   Overcast
10:34 PM 22.6 °F 13.4 °F 15.6 °F 74% 29.51 in 10.0 mi SSE 8.1 mph - N/A   Overcast
10:54 PM 22.6 °F 11.9 °F 15.6 °F 74% 29.49 in 10.0 mi SSE 10.4 mph - N/A   Overcast
11:15 PM 22.6 °F 12.6 °F 15.8 °F 75% 29.48 in 10.0 mi SSE 9.2 mph - N/A   Overcast
11:34 PM 22.8 °F 14.5 °F 15.6 °F 74% 29.48 in 10.0 mi SSE 6.9 mph - N/A   Overcast
11:54 PM 23.0 °F 13.1 °F 15.6 °F 73% 29.47 in 10.0 mi South 9.2 mph - N/A   Overcast